When you browse on this site, cookies collect data to enhance your experience and personalize the content and advertising you see.
Visit our Privacy Policy to learn more. By continuing to use the site, you agree to this use of cookies and data.
  • In France
  • List of Countries
  • For 7 days
  • Water Temperature
  • Weather Map
  • Weather Widgets
  • user-avatar
    Login

    Hourly Weather Molepolole

    Today, 21 August, Wednesday

    Time Temperature Precipitation Wind Pressure Humidity
    00:00 +13°C° 0 mm 4 mps 670 mmHg 56%
    01:00 +12°C° 0 mm 4 mps 670 mmHg 72%
    02:00 +11°C° 0 mm 3 mps 670 mmHg 88%
    03:00 +11°C° 0 mm 4 mps 670 mmHg 90%
    04:00 +10°C° 0 mm 4 mps 670 mmHg 92%
    05:00 +10°C° 0 mm 4 mps 670 mmHg 94%
    06:00 +10°C° 0 mm 4 mps 671 mmHg 90%
    07:00 +10°C° 0 mm 5 mps 671 mmHg 87%
    08:00 +11°C° 0 mm 6 mps 672 mmHg 83%
    09:00 +14°C° 0 mm 6 mps 672 mmHg 74%
    10:00 +15°C° 0 mm 6 mps 673 mmHg 65%
    11:00 +17°C° 0 mm 5 mps 673 mmHg 55%
    12:00 +20°C° 0 mm 5 mps 673 mmHg 46%
    13:00 +22°C° 0 mm 5 mps 672 mmHg 37%
    14:00 +26°C° 0 mm 4 mps 672 mmHg 27%
    15:00 +25°C° 0 mm 4 mps 672 mmHg 26%
    16:00 +25°C° 0 mm 4 mps 671 mmHg 24%
    17:00 +25°C° 0 mm 4 mps 671 mmHg 22%
    18:00 +21°C° 0 mm 4 mps 671 mmHg 29%
    19:00 +19°C° 0 mm 3 mps 670 mmHg 36%
    20:00 +16°C° 0 mm 2 mps 670 mmHg 42%
    21:00 +15°C° 0 mm 2 mps 670 mmHg 45%
    22:00 +14°C° 0 mm 2 mps 670 mmHg 48%
    23:00 +14°C° 0 mm 2 mps 670 mmHg 50%

    Tomorrow, 22 August, Thursday

    Time Temperature Precipitation Wind Pressure Humidity
    00:00 +13°C° 0 mm 2 mps 670 mmHg 53%
    01:00 +12°C° 0 mm 3 mps 670 mmHg 55%
    02:00 +11°C° 0 mm 3 mps 670 mmHg 57%
    03:00 +10°C° 0 mm 2 mps 669 mmHg 60%
    04:00 +9°C° 0 mm 2 mps 669 mmHg 64%
    05:00 +9°C° 0 mm 1 mps 669 mmHg 68%
    06:00 +9°C° 0 mm 2 mps 670 mmHg 64%
    07:00 +10°C° 0 mm 2 mps 671 mmHg 61%
    08:00 +11°C° 0 mm 3 mps 671 mmHg 57%
    09:00 +14°C° 0 mm 3 mps 672 mmHg 49%
    10:00 +18°C° 0 mm 3 mps 672 mmHg 41%
    11:00 +21°C° 0 mm 3 mps 673 mmHg 33%
    12:00 +24°C° 0 mm 3 mps 672 mmHg 29%
    13:00 +25°C° 0 mm 3 mps 672 mmHg 24%
    14:00 +27°C° 0 mm 3 mps 671 mmHg 19%
    15:00 +26°C° 0 mm 3 mps 671 mmHg 18%
    16:00 +26°C° 0 mm 3 mps 670 mmHg 18%
    17:00 +26°C° 0 mm 4 mps 670 mmHg 17%
    18:00 +22°C° 0 mm 3 mps 670 mmHg 22%
    19:00 +19°C° 0 mm 3 mps 669 mmHg 27%
    20:00 +17°C° 0 mm 2 mps 669 mmHg 32%
    21:00 +16°C° 0 mm 2 mps 669 mmHg 34%
    22:00 +15°C° 0 mm 2 mps 669 mmHg 35%
    23:00 +15°C° 0 mm 2 mps 669 mmHg 37%

    Day after tomorrow, 23 August, Friday

    Time Temperature Precipitation Wind Pressure Humidity
    00:00 +14°C° 0 mm 2 mps 669 mmHg 40%
    01:00 +13°C° 0 mm 1 mps 668 mmHg 43%
    02:00 +13°C° 0 mm 1 mps 668 mmHg 46%
    03:00 +12°C° 0 mm 1 mps 668 mmHg 44%
    04:00 +12°C° 0 mm 2 mps 668 mmHg 43%
    05:00 +12°C° 0 mm 2 mps 668 mmHg 41%
    06:00 +14°C° 0 mm 1 mps 669 mmHg 37%
    07:00 +15°C° 0 mm 1 mps 670 mmHg 34%
    08:00 +16°C° 0 mm 1 mps 671 mmHg 30%
    09:00 +19°C° 0 mm 2 mps 672 mmHg 25%
    10:00 +23°C° 0 mm 2 mps 672 mmHg 19%
    11:00 +26°C° 0 mm 3 mps 672 mmHg 14%
    12:00 +27°C° 0 mm 3 mps 672 mmHg 12%
    13:00 +28°C° 0 mm 4 mps 671 mmHg 11%
    14:00 +30°C° 0 mm 4 mps 671 mmHg 9%
    15:00 +29°C° 0 mm 4 mps 670 mmHg 9%
    16:00 +29°C° 0 mm 4 mps 670 mmHg 9%
    17:00 +29°C° 0 mm 4 mps 670 mmHg 9%
    18:00 +25°C° 0 mm 3 mps 669 mmHg 12%
    19:00 +21°C° 0 mm 2 mps 669 mmHg 16%
    20:00 +18°C° 0 mm 2 mps 668 mmHg 20%
    21:00 +16°C° 0 mm 1 mps 668 mmHg 27%
    22:00 +15°C° 0 mm 1 mps 668 mmHg 34%
    23:00 +14°C° 0 mm 1 mps 668 mmHg 41%

    24 August, Saturday

    Time Temperature Precipitation Wind Pressure Humidity
    00:00 +14°C° 0 mm 1 mps 668 mmHg 35%
    01:00 +13°C° 0 mm 2 mps 668 mmHg 29%
    02:00 +13°C° 0 mm 2 mps 668 mmHg 24%
    03:00 +12°C° 0 mm 2 mps 668 mmHg 26%
    04:00 +10°C° 0 mm 2 mps 668 mmHg 29%
    05:00 +9°C° 0 mm 2 mps 668 mmHg 32%
    06:00 +12°C° 0 mm 2 mps 669 mmHg 32%
    07:00 +13°C° 0 mm 2 mps 670 mmHg 33%
    08:00 +15°C° 0 mm 2 mps 671 mmHg 33%
    09:00 +18°C° 0 mm 3 mps 671 mmHg 29%
    10:00 +21°C° 0 mm 3 mps 672 mmHg 24%
    11:00 +25°C° 0 mm 4 mps 673 mmHg 20%
    12:00 +27°C° 0 mm 4 mps 672 mmHg 17%
    13:00 +28°C° 0 mm 3 mps 671 mmHg 15%
    14:00 +29°C° 0 mm 3 mps 671 mmHg 12%
    15:00 +29°C° 0 mm 3 mps 670 mmHg 12%
    16:00 +29°C° 0 mm 3 mps 670 mmHg 11%
    17:00 +28°C° 0 mm 4 mps 669 mmHg 11%
    18:00 +25°C° 0 mm 3 mps 669 mmHg 15%
    19:00 +20°C° 0 mm 2 mps 668 mmHg 19%
    20:00 +17°C° 0 mm 2 mps 668 mmHg 24%
    21:00 +16°C° 0 mm 2 mps 668 mmHg 26%
    22:00 +15°C° 0 mm 2 mps 668 mmHg 29%
    23:00 +15°C° 0 mm 1 mps 668 mmHg 31%

    25 August, Sunday

    Time Temperature Precipitation Wind Pressure Humidity
    00:00 +14°C° 0 mm 2 mps 668 mmHg 31%
    01:00 +14°C° 0 mm 2 mps 668 mmHg 32%
    02:00 +13°C° 0 mm 2 mps 668 mmHg 32%
    03:00 +12°C° 0 mm 2 mps 667 mmHg 34%
    04:00 +10°C° 0 mm 2 mps 667 mmHg 35%
    05:00 +10°C° 0 mm 1 mps 667 mmHg 37%
    06:00 +12°C° 0 mm 1 mps 668 mmHg 33%
    07:00 +14°C° 0 mm 1 mps 669 mmHg 29%
    08:00 +15°C° 0 mm 1 mps 669 mmHg 25%
    09:00 +18°C° 0 mm 2 mps 670 mmHg 22%
    10:00 +21°C° 0 mm 2 mps 670 mmHg 18%
    11:00 +25°C° 0 mm 2 mps 671 mmHg 15%
    12:00 +27°C° 0 mm 2 mps 670 mmHg 14%
    13:00 +28°C° 0 mm 2 mps 670 mmHg 12%
    14:00 +30°C° 0 mm 2 mps 669 mmHg 10%
    15:00 +30°C° 0 mm 2 mps 669 mmHg 10%
    16:00 +30°C° 0 mm 2 mps 668 mmHg 10%
    17:00 +29°C° 0 mm 2 mps 668 mmHg 10%
    18:00 +26°C° 0 mm 2 mps 668 mmHg 14%
    19:00 +23°C° 0 mm 2 mps 667 mmHg 17%
    20:00 +18°C° 0 mm 2 mps 667 mmHg 21%
    21:00 +17°C° 0 mm 2 mps 666 mmHg 23%
    22:00 +17°C° 0 mm 2 mps 666 mmHg 26%
    23:00 +16°C° 0 mm 1 mps 666 mmHg 28%

    26 August, Monday

    Time Temperature Precipitation Wind Pressure Humidity
    00:00 +15°C° 0 mm 1 mps 666 mmHg 30%
    01:00 +14°C° 0 mm 1 mps 666 mmHg 31%
    02:00 +14°C° 0 mm 2 mps 665 mmHg 33%
    03:00 +13°C° 0 mm 1 mps 665 mmHg 36%
    04:00 +13°C° 0 mm 1 mps 665 mmHg 39%
    05:00 +12°C° 0 mm 1 mps 665 mmHg 42%
    06:00 +14°C° 0 mm 1 mps 666 mmHg 34%
    07:00 +18°C° 0 mm 1 mps 667 mmHg 27%
    08:00 +20°C° 0 mm 1 mps 669 mmHg 19%
    09:00 +23°C° 0 mm 1 mps 669 mmHg 16%
    10:00 +27°C° 0 mm 1 mps 670 mmHg 13%
    11:00 +30°C° 0 mm 1 mps 670 mmHg 10%
    12:00 +31°C° 0 mm 1 mps 670 mmHg 9%
    13:00 +31°C° 0 mm 1 mps 669 mmHg 8%
    14:00 +32°C° 0 mm 2 mps 668 mmHg 7%
    15:00 +32°C° 0 mm 2 mps 668 mmHg 7%
    16:00 +32°C° 0 mm 2 mps 668 mmHg 7%
    17:00 +31°C° 0 mm 2 mps 667 mmHg 7%
    18:00 +28°C° 0 mm 2 mps 667 mmHg 9%
    19:00 +25°C° 0 mm 2 mps 666 mmHg 11%
    20:00 +20°C° 0 mm 2 mps 666 mmHg 14%
    21:00 +19°C° 0 mm 2 mps 665 mmHg 17%
    22:00 +18°C° 0 mm 2 mps 665 mmHg 20%
    23:00 +16°C° 0 mm 1 mps 665 mmHg 23%
    Show more